Southern Pines, NC

12:27 PM EDT on May 27, 2018 (GMT -0400)
Moore County

Weather History for KSOP - January, 2013

Change the Weather History Date:

Friday, January 25, 2013

  Actual Average Record
Temperature  
Mean Temperature 20 °F -  
Max Temperature 26 °F 48 °F 72 °F (2017)
Min Temperature 15 °F 29 °F 10 °F (2003)
Degree Days  
Heating Degree Days 44    
Moisture  
Dew Point 13 °F    
Average Humidity 67    
Maximum Humidity 86    
Minimum Humidity 40    
Precipitation  
Precipitation 0.12 in - - ()
Sea Level Pressure  
Sea Level Pressure 30.32 in    
Wind  
Wind Speed 0 mph (SE)    
Max Wind Speed 8 mph    
Max Gust Speed -    
Visibility 9 miles    
Events      
Averages and records for this station are not official NWS values.
T = Trace of Precipitation, MM = Missing Value Source: NWS Daily Summary

Daily Weather History Graph

Daily Weather History Graph

Search for Another Location

Airport or City:

Astronomy

Jan. 25, 2013 Rise Set
Actual Time 7:21 AM EST 5:39 PM EST
Civil Twilight 6:54 AM EST 6:06 PM EST
Nautical Twilight 6:23 AM EST 6:36 PM EST
Astronomical Twilight 5:53 AM EST 7:06 PM EST
Moon 4:34 PM EST (1/25) 5:59 AM EST (1/25)
Length of Visible Light 11h 11m
Length of Day
10h 17m
Waxing Gibbous, 98% of the Moon is Illuminated
Jan 25
Waxing Gibbous
Jan 26
Full
Feb 3
Last Quarter
Feb 10
New
Feb 17
First Quarter

Hourly Weather History & Observations

Time (EST) Temp. Windchill Dew Point Humidity Pressure Visibility Wind Dir Wind Speed Gust Speed Precip Events Conditions
12:15 AM 23.0 °F - 5.0 °F 46% 30.49 in 10.0 mi Calm Calm - N/A   Clear
12:35 AM 24.8 °F - 5.0 °F 43% 30.50 in 10.0 mi Calm Calm - N/A   Clear
12:55 AM 21.2 °F - 6.8 °F 54% 30.51 in 10.0 mi Calm Calm - N/A   Clear
1:15 AM 21.2 °F - 5.0 °F 50% 30.50 in 10.0 mi Calm Calm - N/A   Clear
1:35 AM 19.4 °F - 5.0 °F 54% 30.50 in 10.0 mi Calm Calm - N/A   Clear
1:55 AM 19.4 °F - 5.0 °F 54% 30.51 in 10.0 mi Calm Calm - N/A   Clear
2:15 AM 17.6 °F - 3.2 °F 53% 30.50 in 10.0 mi Calm Calm - N/A   Clear
2:35 AM 19.4 °F - 6.8 °F 58% 30.50 in 10.0 mi Calm Calm - N/A   Clear
2:55 AM 17.6 °F - 6.8 °F 63% 30.49 in 10.0 mi Calm Calm - N/A   Clear
3:15 AM 17.6 °F - 8.6 °F 68% 30.51 in 10.0 mi Calm Calm - N/A   Clear
3:35 AM 17.6 °F - 6.8 °F 63% 30.50 in 10.0 mi Calm Calm - N/A   Clear
3:55 AM 17.6 °F - 6.8 °F 63% 30.49 in 10.0 mi Calm Calm - N/A   Clear
4:15 AM 17.6 °F - 8.6 °F 68% 30.49 in 10.0 mi Calm Calm - N/A   Clear
4:35 AM 15.8 °F - 10.4 °F 79% 30.47 in 10.0 mi Calm Calm - N/A   Clear
4:55 AM 15.8 °F - 6.8 °F 68% 30.47 in 10.0 mi Calm Calm - N/A   Clear
5:15 AM 15.8 °F - 8.6 °F 73% 30.48 in 10.0 mi Calm Calm - N/A   Clear
5:35 AM 17.6 °F - 10.4 °F 73% 30.48 in 10.0 mi Calm Calm - N/A   Clear
5:55 AM 19.4 °F - 10.4 °F 68% 30.48 in 10.0 mi Calm Calm - N/A   Clear
6:15 AM 17.6 °F - 10.4 °F 73% 30.48 in 10.0 mi Calm Calm - N/A   Clear
6:35 AM 17.6 °F - 10.4 °F 73% 30.47 in 10.0 mi Calm Calm - N/A   Clear
6:55 AM 19.4 °F - 12.2 °F 74% 30.47 in 10.0 mi Calm Calm - N/A   Clear
7:15 AM 19.4 °F - 12.2 °F 74% 30.47 in 10.0 mi Calm Calm - N/A   Clear
7:35 AM 21.2 °F - 12.2 °F 68% 30.47 in 10.0 mi Calm Calm - N/A   Clear
7:55 AM 21.2 °F - 10.4 °F 63% 30.45 in 10.0 mi Calm Calm - N/A   Clear
8:35 AM 23.0 °F 18.4 °F 8.6 °F 54% 30.44 in 10.0 mi ESE 3.5 mph - N/A   Clear
8:55 AM 24.8 °F - 6.8 °F 46% 30.45 in 10.0 mi Calm Calm - N/A   Mostly Cloudy
9:15 AM 24.8 °F 16.1 °F 3.2 °F 40% 30.45 in 10.0 mi SE 8.1 mph - N/A   Overcast
9:35 AM 24.8 °F 19.1 °F 3.2 °F 40% 30.46 in 10.0 mi ESE 4.6 mph - N/A   Overcast
9:55 AM 24.8 °F - 5.0 °F 43% 30.45 in 10.0 mi Calm Calm - N/A   Overcast
10:15 AM 24.8 °F 20.5 °F 6.8 °F 46% 30.44 in 10.0 mi East 3.5 mph - N/A   Overcast
10:35 AM 24.8 °F - 8.6 °F 50% 30.43 in 10.0 mi Calm Calm - N/A   Overcast
10:55 AM 24.8 °F 20.5 °F 8.6 °F 50% 30.41 in 10.0 mi ESE 3.5 mph - N/A   Overcast
11:15 AM 24.8 °F - 8.6 °F 50% 30.40 in 10.0 mi Calm Calm - N/A   Overcast
11:35 AM 24.8 °F - 8.6 °F 50% 30.39 in 10.0 mi Calm Calm - N/A   Overcast
11:55 AM 24.8 °F - 8.6 °F 50% 30.36 in 10.0 mi Calm Calm - N/A   Overcast
12:15 PM 24.8 °F - 10.4 °F 54% 30.34 in 9.0 mi Calm Calm - N/A   Overcast
12:35 PM 24.8 °F - 10.4 °F 54% 30.31 in 10.0 mi Calm Calm - N/A   Overcast
12:55 PM 24.8 °F - 12.2 °F 59% 30.28 in 10.0 mi Calm Calm - N/A   Overcast
1:15 PM 24.8 °F - 12.2 °F 59% 30.26 in 10.0 mi Calm Calm - N/A   Overcast
1:35 PM 24.8 °F - 14.0 °F 64% 30.25 in 10.0 mi Calm Calm - N/A   Overcast
1:55 PM 24.8 °F - 12.2 °F 59% 30.22 in 10.0 mi Calm Calm - N/A   Overcast
2:15 PM 24.8 °F - 12.2 °F 59% 30.24 in 10.0 mi Calm Calm - N/A   Overcast
2:35 PM 24.8 °F - 15.8 °F 69% 30.23 in 10.0 mi Calm Calm - 0.01 in   Overcast
2:55 PM 24.8 °F - 17.6 °F 74% 30.22 in 10.0 mi Calm Calm - 0.02 in   Overcast
3:15 PM 24.8 °F - 17.6 °F 74% 30.22 in 9.0 mi Calm Calm - 0.01 in   Overcast
3:35 PM 24.8 °F - 15.8 °F 69% 30.21 in 5.0 mi Calm Calm - 0.03 in   Overcast
3:55 PM 24.8 °F 20.5 °F 19.4 °F 80% 30.18 in 2.5 mi SE 3.5 mph - 0.04 in   Overcast
4:15 PM 24.8 °F 19.1 °F 19.4 °F 80% 30.17 in 5.0 mi SSE 4.6 mph - 0.01 in   Overcast
4:35 PM 26.6 °F - 21.2 °F 80% 30.18 in 5.0 mi Calm Calm - 0.04 in   Overcast
4:55 PM 26.6 °F - 21.2 °F 80% 30.17 in 5.0 mi Calm Calm - 0.04 in   Mostly Cloudy
5:15 PM 26.6 °F - 21.2 °F 80% 30.15 in 4.0 mi Calm Calm - 0.01 in   Overcast
5:35 PM 24.8 °F - 21.2 °F 86% 30.17 in 10.0 mi Calm Calm - 0.01 in   Overcast
5:55 PM 26.6 °F - 21.2 °F 80% 30.16 in 10.0 mi Calm Calm - 0.01 in   Overcast
6:15 PM 26.6 °F - 23.0 °F 86% 30.14 in 10.0 mi Calm Calm - N/A   Overcast
6:35 PM 26.6 °F - 21.2 °F 80% 30.15 in 10.0 mi Calm Calm - N/A   Overcast
6:55 PM 26.6 °F - 21.2 °F 80% 30.16 in 10.0 mi Calm Calm - 0.01 in   Overcast
7:15 PM 26.6 °F - 21.2 °F 80% 30.16 in 10.0 mi Calm Calm - N/A   Overcast
7:35 PM 26.6 °F - 21.2 °F 80% 30.16 in 10.0 mi Calm Calm - N/A   Overcast
7:55 PM 26.6 °F - 21.2 °F 80% 30.16 in 9.0 mi Calm Calm - N/A   Overcast
8:15 PM 26.6 °F - 23.0 °F 86% 30.16 in 8.0 mi Calm Calm - N/A   Overcast
8:35 PM 26.6 °F - 21.2 °F 80% 30.15 in 9.0 mi Calm Calm - N/A   Overcast
8:55 PM 26.6 °F - 21.2 °F 80% 30.14 in 10.0 mi Calm Calm - N/A   Mostly Cloudy
9:15 PM 26.6 °F - 21.2 °F 80% 30.14 in 10.0 mi Calm Calm - N/A   Mostly Cloudy
9:35 PM 26.6 °F - 21.2 °F 80% 30.13 in 10.0 mi Calm Calm - N/A   Overcast
9:55 PM 24.8 °F - 21.2 °F 86% 30.12 in 10.0 mi Calm Calm - N/A   Scattered Clouds
10:15 PM 24.8 °F - 21.2 °F 86% 30.12 in 10.0 mi Calm Calm - N/A   Clear
10:35 PM 24.8 °F - 19.4 °F 80% 30.12 in 10.0 mi Calm Calm - N/A   Clear
10:55 PM 24.8 °F - 19.4 °F 80% 30.12 in 10.0 mi Calm Calm - N/A   Clear
11:15 PM 24.8 °F - 19.4 °F 80% 30.12 in 10.0 mi Calm Calm - N/A   Clear
11:35 PM 24.8 °F - 19.4 °F 80% 30.12 in 10.0 mi Calm Calm - N/A   Clear
11:55 PM 24.8 °F - 19.4 °F 80% 30.12 in 10.0 mi Calm Calm - N/A   Clear